Wind_Speed
29 24 19 20 21 22 24 23 22 19 20 22 21 20 21 20 19 18 17 17 16 15 14 15 16 17 17 17 16 16 16 17 17 16 16 16 16 16 16 16 16 17 18 19
32 29 24 21 21 21 22 24 24 21 20 20 22 22 22 22 21 19 18 17 15 14 15 16 16 17 18 17 17 17 17 18 17 16 16 16 16 17 17 17 17 18 19 19
32 30 28 26 22 21 21 22 23 23 24 23 25 25 25 24 23 20 18 16 16 16 16 17 17 17 17 17 17 17 18 17 17 17 17 17 18 18 18 19 19 19 19 19
31 30 30 27 24 23 23 23 24 25 25 26 28 27 26 25 23 20 19 18 18 18 18 18 18 18 18 17 17 18 18 18 18 19 19 19 19 19 19 19 19 20 20 21
31 29 27 25 25 25 25 26 26 26 27 28 28 26 26 25 23 21 20 20 19 19 19 19 19 19 19 18 18 18 19 19 19 20 20 20 20 20 20 20 20 21 21 22
32 29 25 25 26 26 26 28 28 29 28 28 27 26 25 24 23 22 21 21 21 20 20 20 20 20 20 19 20 20 20 20 21 21 21 21 21 21 21 21 22 22 23 23
33 31 27 25 26 27 28 30 30 29 28 28 28 27 26 24 23 22 22 22 22 22 21 21 21 21 21 21 21 22 21 21 22 22 21 21 22 22 23 22 23 23 23 24
34 32 30 29 27 29 29 29 29 29 29 29 28 27 27 25 24 24 23 23 23 23 23 23 22 22 22 23 22 22 22 22 22 22 22 22 22 23 23 23 23 24 24 24
34 35 35 33 33 33 30 29 29 30 29 29 29 28 27 26 25 25 25 25 25 24 24 24 23 23 23 23 23 23 24 24 23 23 23 23 23 23 24 24 24 24 24 24
36 36 38 37 36 34 32 32 30 30 30 30 29 28 27 26 26 26 25 26 26 25 25 25 25 25 24 24 24 24 25 25 25 24 24 24 23 24 24 24 24 25 25 25
38 38 38 38 37 34 32 32 32 32 31 30 30 29 28 27 27 27 27 27 27 26 26 26 26 26 26 25 25 25 25 26 25 24 24 24 24 24 24 24 25 25 25 26
39 38 38 37 36 35 34 33 33 33 32 32 31 31 29 29 29 28 28 28 28 28 27 27 27 27 27 26 26 27 27 27 26 25 25 24 24 24 24 25 25 26 26 26
40 39 38 37 35 35 34 33 33 33 33 33 33 32 32 31 30 30 29 29 29 29 28 28 28 28 28 27 28 28 27 27 26 25 25 24 24 25 25 25 26 26 26 25
41 40 38 37 37 37 36 34 34 33 33 33 32 32 32 31 31 31 30 30 30 30 29 29 29 29 29 29 29 29 28 27 27 26 25 25 25 25 25 26 26 25 25 24
41 40 39 37 38 37 36 36 35 34 33 32 32 32 31 31 31 31 31 30 30 30 30 30 29 29 29 30 29 29 29 28 27 26 26 26 26 26 26 26 26 25 25 25
40 40 40 38 38 37 37 36 36 35 34 33 32 32 31 31 31 31 31 31 31 31 30 30 30 30 30 30 29 29 29 28 28 27 27 27 27 26 26 25 25 25 25 25
39 40 40 39 38 38 37 37 36 35 34 33 33 32 31 32 32 32 32 31 31 31 31 31 31 31 30 30 30 29 28 27 28 28 28 27 27 26 26 25 25 25 26 26
38 39 39 39 39 38 37 37 36 35 34 33 33 33 33 33 33 33 33 32 32 31 31 30 30 30 29 29 29 28 27 27 27 27 26 26 26 26 26 26 26 26 26 26
37 37 37 37 38 37 37 36 35 35 34 34 33 34 34 34 34 33 33 32 32 32 31 30 30 29 29 29 28 28 27 27 26 26 25 25 26 25 25 25 26 26 25 25
36 35 36 36 36 36 36 35 35 34 34 33 33 32 32 31 31 31 31 32 31 31 30 30 29 29 29 28 27 27 26 25 25 25 25 25 25 25 25 25 25 26 25 26
34 34 34 35 35 35 34 34 34 34 33 32 32 32 31 31 30 30 30 30 30 30 29 28 28 28 27 26 25 25 25 25 24 24 25 24 25 25 25 25 26 26 25 26
33 33 33 33 34 33 33 33 33 33 32 32 32 31 31 30 30 30 30 30 30 29 29 28 28 27 26 26 25 25 24 24 24 24 24 24 24 24 25 25 25 26 26 26
31 31 31 32 32 32 31 31 31 31 31 31 30 30 30 30 29 29 29 28 28 28 27 27 26 25 25 25 25 24 24 24 23 23 23 23 23 23 24 25 25 25 26 26
28 28 28 29 29 29 29 29 28 28 28 28 29 29 29 29 28 27 27 26 26 25 25 24 25 25 25 25 25 24 23 23 23 22 22 22 23 23 24 25 26 26 26 27
25 26 26 26 27 27 27 27 27 27 26 26 26 25 25 25 25 25 25 24 24 24 24 24 24 24 23 23 22 22 21 21 21 22 22 23 23 24 25 25 26 26 27 27
23 23 24 24 25 25 24 24 24 24 24 24 23 23 22 22 21 21 22 22 22 22 22 21 21 21 21 20 20 20 20 20 21 22 23 24 24 24 24 25 26 27 28 28
21 22 22 22 22 22 21 21 22 22 22 21 21 21 20 20 20 19 19 19 18 18 18 19 19 19 18 19 19 19 20 20 21 22 23 23 23 24 25 26 27 27 28 28
Wind_Direction
212 212 222 235 234 227 223 221 228 236 247 261 267 267 269 275 278 279 281 284 287 292 296 302 309 315 317 316 318 320 321 321 321 320 319 318 318 319 315 313 313 310 307 307
214 211 216 226 230 231 230 227 226 231 239 250 260 263 266 271 274 275 276 279 284 287 291 297 302 309 314 314 316 315 317 319 318 316 316 316 316 317 319 319 317 315 314 312
218 215 218 225 226 227 230 232 232 231 239 249 256 260 264 268 270 269 273 277 282 283 289 295 299 305 309 310 312 313 315 316 315 314 315 315 316 316 316 316 315 314 313 314
219 219 221 225 229 227 226 229 230 232 235 244 252 256 261 264 266 268 271 276 280 282 287 293 297 301 305 307 310 311 312 313 313 314 314 312 313 314 313 313 313 313 314 314
218 221 225 225 228 226 226 229 228 230 235 241 249 255 257 260 263 266 269 271 276 280 284 289 294 297 300 303 306 309 311 311 312 312 312 312 311 312 311 310 311 313 313 314
217 218 221 228 230 229 228 231 230 230 234 241 246 251 256 260 263 266 268 270 273 277 282 286 291 295 296 298 301 305 307 309 310 310 311 311 311 310 310 311 312 313 312 313
217 217 219 224 226 226 226 231 233 234 237 242 245 249 255 259 262 265 266 269 271 275 279 284 288 291 295 297 299 303 305 307 309 310 311 313 314 313 313 312 312 312 312 313
219 217 221 225 227 225 227 231 235 237 240 243 248 250 254 257 259 263 265 268 271 274 277 281 285 288 291 295 297 300 303 304 306 306 308 310 312 312 313 313 312 312 313 313
221 220 222 226 231 234 234 235 237 239 242 246 249 252 253 255 258 262 265 268 271 274 276 279 282 285 288 291 293 297 299 301 302 304 305 308 310 312 312 312 312 312 313 313
220 222 224 226 230 233 235 238 239 241 243 246 249 252 253 255 257 260 263 267 270 272 274 277 280 283 285 287 289 292 295 298 300 301 302 305 307 310 311 312 312 311 311 312
222 226 228 229 231 234 235 237 239 241 244 247 249 251 253 256 258 259 262 266 270 271 273 275 277 281 282 285 288 291 293 296 298 299 301 302 305 308 309 309 310 310 310 310
222 225 227 230 232 233 237 238 240 243 246 248 250 252 254 256 258 259 262 266 269 270 272 273 276 279 281 283 286 288 291 294 296 297 299 302 305 306 307 307 308 308 309 309
227 230 231 232 233 234 237 239 241 243 246 248 251 254 255 257 259 260 262 264 268 269 270 272 275 278 280 282 285 288 289 292 293 294 296 299 302 304 305 306 308 309 309 308
230 231 233 235 236 236 237 239 242 244 246 249 251 254 256 257 258 259 261 263 266 268 269 271 273 276 279 280 282 285 286 288 290 293 294 296 298 301 303 306 308 308 309 309
230 231 233 236 236 236 237 239 242 244 246 248 251 253 254 255 256 258 260 262 264 267 268 270 272 275 278 279 281 283 284 284 286 289 292 295 297 299 302 304 305 305 306 307
232 233 233 235 235 237 238 240 242 244 246 248 250 252 253 255 256 258 259 261 263 265 267 268 270 273 277 279 281 282 283 283 284 287 291 293 296 298 300 302 302 303 304 304
232 233 234 235 236 237 239 240 242 244 246 248 250 252 254 256 257 259 260 261 263 265 266 268 269 272 275 277 280 281 281 282 283 287 290 292 294 296 298 300 300 301 302 303
231 232 233 234 236 237 239 240 242 244 246 247 249 251 253 255 257 259 261 261 263 265 267 268 269 271 273 275 278 280 280 280 283 286 289 289 291 293 295 297 298 299 301 302
230 231 232 234 235 237 238 240 242 244 246 248 250 252 253 255 256 258 260 260 261 264 265 267 269 271 272 273 275 279 280 281 283 286 288 290 290 291 293 296 297 298 300 302
231 232 232 233 234 236 237 238 241 243 245 247 250 252 253 255 256 257 258 259 261 263 265 266 269 271 273 273 275 277 279 281 284 287 289 289 290 292 293 294 295 296 298 300
230 231 232 233 234 235 236 237 239 241 244 246 249 250 252 254 256 256 257 258 261 262 264 267 267 268 270 271 272 275 279 282 284 286 287 289 290 293 295 295 295 296 299 301
229 229 230 231 232 233 235 237 239 241 244 246 248 249 251 253 254 254 255 258 260 262 264 266 267 267 268 268 270 274 278 282 284 286 287 288 289 292 294 295 296 297 300 302
226 226 228 229 231 233 234 237 239 240 242 245 247 249 251 253 255 256 258 258 260 261 261 261 262 265 267 269 271 274 277 280 282 285 288 289 290 292 294 296 297 298 300 302
224 225 225 227 229 230 232 235 238 240 242 245 247 248 249 251 253 255 256 257 258 257 258 260 263 267 269 271 273 275 277 279 282 285 286 287 290 292 293 295 298 300 301 301
223 224 226 228 229 230 232 234 236 238 241 243 245 247 249 251 252 252 252 252 253 255 258 261 262 265 268 270 271 273 276 279 282 284 285 287 290 292 294 296 298 300 301 302
221 223 224 226 228 230 232 234 236 237 239 240 242 244 245 247 249 250 251 251 253 257 258 259 263 265 266 268 271 275 277 280 283 285 287 289 291 293 295 297 300 301 302 302
219 220 222 224 227 229 231 233 234 235 235 237 239 241 244 245 246 247 248 249 251 254 257 262 266 267 269 271 273 276 278 281 284 287 288 289 291 294 296 299 300 301 301 302
Height
5871 5875 5879 5882 5885 5888 5892 5896 5899 5901 5901 5899 5899 5899 5899 5899 5900 5900 5900 5899 5899 5898 5898 5897 5896 5894 5892 5891 5889 5888 5886 5885 5883 5882 5880 5879 5878 5876 5875 5873 5871 5870 5869 5868
5864 5869 5873 5877 5881 5884 5887 5891 5893 5896 5896 5894 5893 5895 5895 5896 5896 5896 5896 5896 5896 5896 5895 5894 5893 5892 5890 5889 5887 5886 5884 5883 5881 5880 5878 5877 5875 5874 5872 5870 5869 5867 5865 5864
5859 5864 5868 5872 5876 5880 5883 5886 5888 5890 5891 5890 5890 5891 5892 5892 5892 5893 5892 5892 5893 5893 5892 5892 5891 5889 5888 5887 5885 5884 5882 5881 5879 5877 5876 5874 5873 5871 5869 5868 5866 5864 5862 5860
5853 5858 5861 5868 5872 5874 5877 5880 5882 5884 5885 5886 5886 5887 5887 5888 5888 5889 5889 5890 5890 5889 5889 5889 5888 5887 5886 5884 5883 5882 5880 5878 5876 5875 5873 5872 5870 5868 5866 5864 5863 5861 5858 5856
5847 5851 5856 5862 5865 5868 5871 5873 5876 5878 5879 5880 5880 5882 5882 5883 5884 5885 5886 5886 5886 5886 5886 5885 5885 5884 5882 5881 5880 5879 5877 5875 5874 5872 5870 5868 5867 5865 5863 5861 5859 5857 5854 5852
5841 5846 5851 5856 5858 5861 5865 5866 5868 5871 5873 5875 5876 5877 5878 5879 5880 5881 5881 5881 5882 5882 5882 5882 5881 5880 5879 5878 5877 5875 5874 5872 5870 5869 5867 5865 5863 5861 5859 5857 5855 5852 5850 5848
5835 5840 5845 5848 5851 5855 5859 5859 5861 5864 5867 5869 5870 5872 5873 5874 5874 5876 5876 5877 5877 5877 5877 5877 5877 5876 5875 5874 5873 5871 5870 5868 5866 5865 5863 5861 5859 5857 5854 5852 5850 5848 5845 5843
5829 5834 5840 5840 5843 5846 5849 5852 5856 5858 5861 5863 5864 5865 5867 5869 5870 5871 5871 5872 5872 5872 5873 5872 5872 5871 5870 5869 5868 5867 5865 5864 5862 5861 5859 5857 5855 5852 5850 5848 5845 5843 5841 5838
5823 5827 5830 5833 5836 5839 5843 5847 5849 5852 5855 5857 5858 5860 5862 5863 5864 5865 5866 5866 5867 5867 5867 5867 5867 5866 5865 5865 5863 5862 5861 5859 5858 5856 5854 5852 5850 5848 5845 5843 5840 5838 5835 5833
5814 5817 5821 5825 5829 5833 5836 5841 5844 5846 5848 5851 5852 5854 5856 5857 5858 5859 5860 5861 5861 5861 5862 5862 5861 5861 5860 5859 5858 5857 5856 5854 5853 5851 5849 5847 5845 5843 5840 5838 5835 5833 5831 5828
5806 5810 5814 5818 5822 5826 5829 5833 5836 5839 5841 5844 5846 5848 5849 5851 5852 5853 5854 5855 5855 5855 5856 5856 5855 5855 5855 5854 5853 5852 5850 5849 5847 5846 5844 5842 5840 5837 5835 5833 5830 5828 5825 5823
5798 5802 5806 5810 5814 5819 5822 5826 5829 5832 5835 5837 5839 5841 5843 5844 5845 5847 5848 5848 5849 5849 5849 5849 5849 5849 5849 5848 5847 5846 5845 5843 5842 5840 5838 5836 5834 5832 5830 5828 5825 5823 5820 5818
5790 5794 5798 5802 5806 5811 5815 5819 5822 5825 5828 5830 5832 5834 5835 5837 5838 5840 5841 5841 5842 5842 5842 5842 5843 5842 5842 5841 5840 5839 5838 5837 5836 5834 5833 5831 5829 5827 5825 5822 5820 5817 5814 5812
5782 5787 5791 5794 5799 5804 5808 5811 5814 5817 5820 5822 5824 5826 5828 5830 5831 5832 5833 5834 5835 5835 5835 5836 5836 5836 5835 5834 5834 5833 5832 5830 5829 5828 5826 5825 5823 5821 5819 5817 5814 5811 5809 5806
5774 5779 5784 5787 5792 5796 5800 5804 5807 5809 5812 5815 5817 5819 5821 5822 5823 5825 5826 5827 5827 5828 5828 5828 5829 5829 5828 5827 5827 5826 5825 5824 5822 5821 5820 5818 5816 5815 5813 5810 5808 5806 5803 5801
5766 5771 5775 5779 5784 5788 5792 5795 5799 5802 5804 5807 5809 5811 5813 5814 5816 5817 5818 5819 5820 5820 5821 5821 5821 5821 5821 5820 5819 5818 5817 5816 5815 5814 5813 5811 5810 5808 5806 5804 5802 5799 5797 5794
5758 5762 5767 5771 5776 5780 5783 5787 5790 5793 5796 5799 5801 5803 5805 5806 5808 5809 5810 5811 5812 5812 5813 5813 5813 5813 5813 5812 5812 5811 5810 5809 5808 5807 5806 5804 5803 5801 5799 5797 5795 5793 5791 5788
5749 5754 5758 5763 5767 5771 5775 5778 5781 5785 5788 5790 5792 5795 5796 5798 5799 5800 5802 5803 5803 5804 5805 5805 5805 5805 5805 5805 5804 5804 5803 5802 5801 5800 5799 5797 5796 5794 5792 5791 5788 5786 5784 5781
5740 5745 5749 5754 5758 5763 5766 5770 5773 5776 5779 5782 5784 5786 5788 5789 5791 5792 5793 5794 5795 5796 5797 5797 5798 5798 5798 5797 5797 5796 5796 5795 5794 5793 5792 5790 5788 5787 5785 5783 5781 5779 5777 5775
5733 5737 5742 5746 5750 5754 5758 5762 5765 5768 5771 5774 5776 5778 5779 5781 5782 5784 5785 5786 5787 5788 5789 5789 5790 5790 5790 5790 5789 5789 5789 5788 5787 5786 5785 5783 5782 5780 5778 5776 5775 5773 5771 5768
5725 5729 5734 5738 5742 5746 5750 5754 5757 5760 5763 5766 5768 5770 5771 5773 5775 5776 5777 5778 5779 5780 5781 5782 5782 5782 5783 5782 5782 5782 5782 5781 5780 5779 5778 5776 5775 5773 5772 5770 5768 5766 5764 5761
5717 5722 5727 5731 5735 5739 5742 5746 5749 5752 5755 5758 5760 5762 5764 5766 5767 5768 5769 5771 5772 5773 5773 5774 5775 5775 5776 5775 5775 5775 5774 5774 5773 5772 5771 5769 5768 5767 5765 5763 5761 5759 5757 5754
5711 5716 5720 5724 5728 5732 5735 5739 5742 5745 5748 5750 5752 5754 5756 5758 5759 5761 5762 5763 5764 5765 5766 5767 5768 5768 5768 5768 5768 5768 5767 5767 5766 5765 5764 5763 5761 5760 5758 5756 5754 5752 5750 5747
5706 5710 5714 5717 5721 5725 5729 5732 5735 5738 5741 5743 5745 5747 5749 5750 5752 5753 5754 5756 5757 5758 5759 5760 5761 5761 5761 5762 5761 5761 5761 5760 5759 5758 5757 5756 5755 5753 5751 5750 5748 5745 5743 5740
5701 5705 5708 5712 5716 5719 5723 5726 5729 5731 5734 5736 5738 5740 5742 5743 5745 5746 5748 5749 5751 5752 5753 5753 5754 5754 5755 5755 5755 5754 5754 5753 5753 5752 5751 5750 5748 5746 5745 5743 5740 5738 5736 5733
5697 5700 5704 5707 5711 5714 5717 5720 5723 5725 5728 5730 5732 5734 5736 5737 5739 5740 5742 5743 5745 5746 5747 5747 5748 5748 5748 5748 5748 5748 5748 5747 5746 5745 5744 5743 5741 5739 5737 5735 5733 5731 5728 5726
5693 5697 5700 5703 5707 5710 5713 5715 5718 5720 5723 5725 5727 5729 5731 5732 5734 5735 5737 5738 5740 5741 5741 5742 5742 5742 5742 5743 5743 5742 5742 5741 5740 5739 5737 5736 5734 5732 5730 5728 5726 5723 5721 5718